Location: La Bastide
(43.1661°N, 1.2755°E)
Time: 18:19:02
(UTC+00:00)

ISS - Pass Details

Date: 19 February 2026
Orbit: 416 x 427 km, 51.6° (Epoch: 6 March)

Event Time Altitude Azimuth Distance (km) Brightness Sun altitude
Exits shadow 06:15:45 - 297° (WNW) 1,696 -1.3 -6.4°
Reaches altitude 10° 06:16:23 10° 304° (WNW) 1,495 -1.5 -6.3°
Maximum altitude 06:18:56 20° 353° (N) 1,039 -1.9 -5.8°
Drops below altitude 10° 06:21:29 10° 43° (NE) 1,494 -0.5 -5.4°
Sets 06:23:58 0° 61° (ENE) 2,358 0.9 -4.9°
